Regional Weather Roundup
Issued by NWS Sterling, VA

Home | Current Version | Previous Version | Text Only | Print | Product List | Glossary On
Versions: 1 2 3 4 5 6 7 8 9 10 11 12 13 14 15 16 17 18 19 20 21 22 23 24 25 26 27 28
000
ASUS41 KLWX 280711
RWRLWX

REGIONAL WEATHER ROUNDUP
NATIONAL WEATHER SERVICE BALTIMORE MD/WASHINGTON DC
300 AM EDT FRI APR 28 2017

Note: "FAIR" indicates few or no clouds below 12,000 feet
with no significant weather and/or obstructions to visibility.
 TC=TEMPERATURE CELSIUS

 * =Non NWS site. Station does not report precipitation (e.g. rain,
    snow, etc.), thunder, or fog.

DCZ001-MDZ009-015-VAZ040>042-051-053>054-280800-
WASHINGTON METRO

CITY           SKY/WX    TMP DP  RH WIND       PRES   REMARKS
WASHINGTON NAT CLOUDY    70  62  76 SW9       29.87R THUNDER
DULLES         PTCLDY    65  59  81 S6        29.86R
ANDREWS AFB    MOCLDY    70  60  69 SW12      29.86R
FT BELVOIR     MOCLDY    70  60  70 CALM      29.87R
QUANTICO       CLOUDY    71  62  73 SW3       29.88S
COLLEGE PARK*  CLOUDY    66  61  82 CALM      29.86S
LEESBURG*      CLEAR     68  63  83 SW5       29.87S
MANASSAS*        N/A     65  61  87 S3        29.88R

$$

MDZ006>007-011-014-280800-
BALTIMORE METRO

CITY           SKY/WX    TMP DP  RH WIND       PRES   REMARKS
BWI AIRPORT    MOCLDY    68  62  81 SW5       29.86R
MD SCIENCE CTR   N/A     68  61  78 MISG      29.86R
MARTIN STATE   CLOUDY    66  63  88 S3        29.88R
ANNAPOLIS      CLOUDY    65  62  90 CALM      29.85R
FORT MEADE*    MOCLDY    61  59  94 CALM      29.89R

$$

MDZ012-015-019>023-280800-
MARYLAND EASTERN SHORE

CITY           SKY/WX    TMP DP  RH WIND       PRES   REMARKS
OCEAN CITY     PTCLDY    66  61  84 SW9       29.91R
SALISBURY      CLOUDY    70  63  78 SW9       29.89R
BAY BRIDGE AP* CLOUDY    68  61  77 S7        29.86S
CAMBRIDGE*     MOCLDY    70  61  73 S6        29.88S
EASTON*        LGT RAIN  71  61  72 SW3       29.90S

$$

MDZ017>025-280800-
SOUTHERN MARYLAND

CITY           SKY/WX    TMP DP  RH WIND       PRES   REMARKS
PATUXENT RIVER TSTM      71  65  81 SW8       29.87F
ST INIGOES     CLOUDY    70  62  76 SW7       29.88R THUNDER
LEONARDTOWN*   CLOUDY    66  63  88 SW9       29.91R

$$

MDZ003>005-280800-
NORTH CENTRAL MARYLAND

CITY           SKY/WX    TMP DP  RH WIND       PRES   REMARKS
FREDERICK*     CLEAR     64  63  94 SW5       29.88R
HAGERSTOWN APT PTCLDY    63  60  90 S7        29.86R
WESTMINSTER*   CLEAR     66  61  82 SW7       29.87R

$$

MDZ501>502-280800-
WESTERN MARYLAND

CITY           SKY/WX    TMP DP  RH WIND       PRES   REMARKS
OAKLAND*       CLEAR     54  54 100 W8        29.95F FOG
CUMBERLAND*    CLOUDY    63  63 100 SE3       29.93R VSB 1/4

$$

VAZ025>031-280800-
SHENANDOAH VALLEY

CITY           SKY/WX    TMP DP  RH WIND       PRES   REMARKS
WINCHESTER*    CLEAR     63  59  88 SW8       29.88R
FRONT ROYAL*   CLEAR     64  59  82 SW8       29.88R
LURAY*         CLEAR     61  59  94 CALM      29.91R
NEW MARKET*    CLEAR     60  58  91 CALM      29.90R
STAUNTON*      CLEAR     57  56  97 CALM      29.94S
WAYNESBORO*    CLEAR     56  56 100 S8        29.93S

$$

WVZ021-048>050-054>055-280800-
EASTERN WEST VIRGINIA PANHANDLE

CITY           SKY/WX    TMP DP  RH WIND       PRES   REMARKS
MARTINSBURG    CLEAR     64  59  83 S6        29.86R
PETERSBURG*    CLOUDY    59  59  99 CALM      29.92S FOG

$$

VAZ036>039-050-280800-
CENTRAL FOOTHILLS

CITY           SKY/WX    TMP DP  RH WIND       PRES   REMARKS
CHARLOTTESVILL PTCLDY    64  62  93 CALM      29.89S
CULPEPER*      CLOUDY    65  61  89 SW3       29.89S
ORANGE*        PTCLDY    61  59  94 CALM      29.89S
GORDONSVILLE*  MOCLDY    62  60  93 CALM      29.89S
WARRENTON*     CLOUDY    64  59  83 SW3       29.88R

$$

VAZ055>057-280800-
NORTH AND CENTRAL PIEDMONT

CITY           SKY/WX    TMP DP  RH WIND       PRES   REMARKS
FREDERICKSBRG* CLOUDY    71  65  81 SW14      29.87S
STAFFORD*      CLOUDY    68  62  80 CALM      29.92S

$$

NCZ024-NYZ072-PAZ021-071-VAZ022-071-280800-
OTHER REGIONAL OBSERVATIONS

CITY           SKY/WX    TMP DP  RH WIND       PRES   REMARKS
NEW YORK CITY  CLOUDY    58  57  97 CALM      29.89F FOG
PHILADELPHIA   CLOUDY    66  63  90 S5        29.85S
PITTSBURGH     CLEAR     54  51  90 W3        29.92R
ROANOKE        CLEAR     59  58  96 W6        29.95S FOG
RICHMOND       CLOUDY    68  66  93 SW9       29.91S
RALEIGH        CLOUDY    72  65  78 SW12      29.94S

$$

ANZ530>537-280800-
MARINE OBSERVATIONS

STATION/POSITION TIME  TEMP    WIND        PRES
                       AIR SEA DIR/SP/G
                 (UTC) (F)     (DEG/KT/KT) (MB)
THOMAS PT LIGHT  0700   65 57  180/  8/  9   N/A
BALT KEY BRIDGE  0648   65     170/  5/  6 1010.9R
COVE POINT       0648   69     240/ 13/ 18 1012.1R
LEWISETTA        0648   71 66  230/ 11/ 13 1011.7F
SOLOMONS ISLAND  0648          240/ 11/ 14   N/A
PINEY POINT      0648          230/ 10/ 13   N/A

$$





USA.gov is the U.S. government's official web portal to all federal, state and local government web resources and services.